Location: Gro�sch�nbrunn
(49.5760°N, 11.8868°E)
Time: 15:24:23
(UTC+00:00)

ISS - Pass Details

Date: 26 November 2020
Orbit: 418 x 419 km, 51.6° (Epoch: 17 January)

Event Time Altitude Azimuth Distance (km) Brightness Sun altitude
Rises 16:59:55 0° 254° (WSW) 2,361 1.9 -15.9°
Reaches altitude 10° 17:02:01 10° 255° (WSW) 1,498 0.4 -16.2°
Maximum altitude 17:05:23 83° 344° (NNW) 428 -3.8 -16.8°
Enters shadow 17:06:15 47° 66° (ENE) 565 -3.6 -16.9°
